Location: Les Jeannots
(43.2262°N, 5.5774°E)
Time: 08:38:02
(UTC+00:00)

Cosmos 1420 Rocket - Pass Details

Date: 05 July 2020
Orbit: 754 x 781 km, 74.0° (Epoch: 04 August)

Event Time Altitude Azimuth Distance (km) Brightness Sun altitude
Rises 22:51:38 0° 343° (NNW) 3,250 8.7 -23.1°
Reaches altitude 10° 22:54:05 10° 349° (NNW) 2,324 7.6 -23.2°
Maximum altitude 22:59:14 52° 66° (ENE) 956 4.5 -23.4°
Enters shadow 23:00:34 42° 111° (ESE) 1,101 4.5 -23.4°
